CZ-2D DEB, 43487

Orbit data source: Space-Track

CZ-2D DEB, 43487 is space debris in SSO originally from a launch on Sat, 02 Jun 2018 UTC launched from the Jiuquan Satellite Launch Center, China (JSC). Debris objects in space refer to the collection of defunct objects orbiting the Earth. Examples of debris include non-operational satellites, rocket bodies, and fragments generated from explosions, collisions, or faulty payload assembly.

Loading next visibility...
Identifier
43487, 2018-048D
Orbit
SSO
Country
Flag of CNCN / PRC
Related business
Manufacturer
CALT
Mission
Spacecraft
Bus & Motor
Unknown
Mass
1 kg wet, 1 kg dry
Launch date (UTC)
2018-06-02 (8 years ago)
Launch vehicle
Unknown
Launch site
Jiuquan Satellite Launch Center, China (JSC)
Object type
Payload
Rocket body
Debris
Shape & HBR
Cone, 0.1 m
Radar Cross Section
0.025 m², Medium (>0.1 m² and < 1m²)

Expand to show TLE details & history
Last TLE update: 2 days ago

TLE from 2 days ago
0 CZ-2D DEB
1 43487U 18048D   26171.00354232  .00002583  00000-0  26991-3 0  9991
2 43487  97.6107 177.6901 0027223  55.7768 304.6024 14.90249643434465
Epoch: 2026-06-20T00:05Z
TLE epoch observation values (Epoch: 2026-06-20T00:05:06.056Z)
Latitude
-0.00003°
Longitude
-91.80953°
Altitude
589.45 km
Speed
7.571 km/s
True Right ascension
11h 50m 45s
True Declination
0° 00' 00"
Sunlit
Object was in daylight at epoch
Visualization orbit readout
Latitude
Unknown
Longitude
Unknown
Altitude
Unknown
Speed
Unknown
Apparent Right ascension
Unknown
Apparent Declination
Unknown
Sunlit
N/A
Visualization observer readout
Local Sidereal Time
21:43:10
Azimuth
Unknown
Elevation
Unknown
Doppler factor
Unknown
Orbital elements
Apogee altitude
613.152 km
Perigee altitude
575.19 km
Semi-major axis
6,972.308 km
Eccentricity
0.00272
Inclination
97.6107°
RAAN
177.6901°
Arg. of periapsis
55.7768°
True anomaly
304.34513°
Mean anomaly
304.6024°
Eccentric anomaly
304.47382°
Mean motion
3.72802 °/min
Orbital period
96.57 mins
BSTAR
0.00026991
Loading maneuver chart data...
Computing Atmospheric mass density...
Loading historical data...
Loading historical data...
Loading historical data...
Loading historical data...
Loading historical data...
Loading historical data...
Loading historical data...
Other satellites on launch #48 in the year 2018 (2018-06-02 UTC)

Documentation

Showing up to 5 results
|